Weather History for Whidbey Island, WA

Change the Weather History Date:

Tuesday, November 20, 2012

  Actual Average Record
Temperature  
Mean Temperature 48 °F -  
Max Temperature 51 °F 47 °F 62 °F (2002)
Min Temperature 45 °F 38 °F 24 °F (2011)
Degree Days  
Heating Degree Days 16    
Moisture  
Dew Point 43 °F    
Average Humidity 81    
Maximum Humidity 87    
Minimum Humidity 71    
Precipitation  
Precipitation 0.03 in - - ()
Sea Level Pressure  
Sea Level Pressure 29.59 in    
Wind  
Wind Speed 14 mph (SE)    
Max Wind Speed 26 mph    
Max Gust Speed 38 mph    
Visibility 10 miles    
Events Rain    
Averages and records for this station are not official NWS values.
T = Trace of Precipitation, MM = Missing Value Source: NWS Daily Summary

Daily Weather History Graph

Daily Weather History Graph

Search for Another Location

Airport:

Trip Planner

Search our weather history database for the weather conditions in past years. The results will help you decide how hot, cold, wet, or windy it might be!

Date:

Astronomy

Nov. 20, 2012 Rise Set
Actual Time 7:26 AM PST 4:25 PM PST
Civil Twilight 6:51 AM PST 5:00 PM PST
Nautical Twilight 6:13 AM PST 5:39 PM PST
Astronomical Twilight 5:36 AM PST 6:16 PM PST
Moon 12:46 PM PST (11/20) No Moon Set
Length of Visible Light 10h 09m
Length of Day
8h 59m
First Quarter, 52% of the Moon is Illuminated
Nov 20
First Quarter
Nov 28
Full
Dec 6
Last Quarter
Dec 13
New
Dec 19
First Quarter

Hourly Weather History & Observations

Time (PST) Temp. Windchill Dew Point Humidity Pressure Visibility Wind Dir Wind Speed Gust Speed Precip Events Conditions
12:43 AM 46.4 °F 41.9 °F 42.8 °F 87% 29.65 in 10.0 mi ESE 9.2 mph - N/A   Mostly Cloudy
12:56 AM 48.0 °F - 44.1 °F 86% 29.66 in 10.0 mi ESE 8.1 mph - N/A   Mostly Cloudy
1:56 AM 48.9 °F - 45.0 °F 86% 29.67 in 10.0 mi SSE 11.5 mph - N/A   Mostly Cloudy
2:56 AM 48.9 °F - 45.0 °F 86% 29.67 in 10.0 mi SSE 10.4 mph - N/A   Mostly Cloudy
3:34 AM 48.2 °F - 44.6 °F 87% 29.65 in 10.0 mi SE 10.4 mph - N/A   Mostly Cloudy
3:56 AM 48.0 °F - 44.1 °F 86% 29.65 in 10.0 mi SE 9.2 mph - N/A   Mostly Cloudy
4:56 AM 48.0 °F - 44.1 °F 86% 29.64 in 10.0 mi SE 11.5 mph - N/A   Mostly Cloudy
5:56 AM 48.9 °F - 44.1 °F 83% 29.64 in 10.0 mi SE 15.0 mph - N/A   Mostly Cloudy
6:56 AM 46.9 °F - 42.1 °F 83% 29.62 in 10.0 mi ESE 12.7 mph - N/A   Mostly Cloudy
7:47 AM 48.2 °F - 42.8 °F 82% 29.59 in 9.0 mi ESE 13.8 mph - 0.00 in Rain Light Rain
7:56 AM 48.0 °F - 43.0 °F 83% 29.60 in 7.0 mi ESE 15.0 mph - 0.00 in Rain Light Rain
8:43 AM 48.2 °F - 44.6 °F 87% 29.55 in 10.0 mi ESE 11.5 mph - 0.02 in   Overcast
8:56 AM 50.0 °F - 44.1 °F 80% 29.56 in 10.0 mi ESE 15.0 mph - 0.02 in   Overcast
9:56 AM 50.0 °F - 43.0 °F 77% 29.54 in 10.0 mi SE 12.7 mph - N/A   Overcast
10:56 AM 50.0 °F - 42.1 °F 74% 29.52 in 10.0 mi SE 9.2 mph - N/A   Overcast
11:28 AM 50.0 °F - 42.8 °F 76% 29.51 in 9.0 mi SE 16.1 mph 23.0 mph 0.00 in Rain Light Rain
11:56 AM 48.9 °F - 44.1 °F 83% 29.50 in 10.0 mi SE 16.1 mph 26.5 mph 0.01 in Rain Light Rain
12:17 PM 51.8 °F - 46.4 °F 82% 29.48 in 10.0 mi SE 26.5 mph 35.7 mph 0.00 in   Mostly Cloudy
12:56 PM 50.0 °F - 42.1 °F 74% 29.52 in 10.0 mi SE 21.9 mph 34.5 mph 0.00 in   Mostly Cloudy
1:29 PM 51.8 °F - 42.8 °F 71% 29.52 in 10.0 mi SSE 20.7 mph 31.1 mph N/A   Overcast
1:43 PM 50.0 °F - 42.8 °F 76% 29.51 in 9.0 mi SSE 24.2 mph 31.1 mph 0.00 in Rain Light Rain
1:56 PM 51.1 °F - 44.1 °F 77% 29.51 in 9.0 mi SE 24.2 mph 38.0 mph 0.00 in   Overcast
2:03 PM 50.0 °F - 44.6 °F 82% 29.51 in 10.0 mi SSE 26.5 mph 35.7 mph N/A   Mostly Cloudy
2:56 PM 51.1 °F - 42.1 °F 71% 29.54 in 10.0 mi SSE 23.0 mph 29.9 mph N/A   Mostly Cloudy
3:56 PM 50.0 °F - 43.0 °F 77% 29.59 in 10.0 mi SSE 23.0 mph 33.4 mph N/A   Partly Cloudy
4:56 PM 48.9 °F - 43.0 °F 80% 29.59 in 10.0 mi SSE 24.2 mph 36.8 mph N/A   Scattered Clouds
5:56 PM 50.0 °F - 42.1 °F 74% 29.61 in 10.0 mi SSE 26.5 mph 32.2 mph N/A   Scattered Clouds
6:46 PM 48.2 °F - 41.0 °F 76% 29.63 in 10.0 mi South 23.0 mph 34.5 mph 0.00 in Rain Light Rain
6:56 PM 48.0 °F - 41.0 °F 77% 29.63 in 10.0 mi SSE 16.1 mph 33.4 mph 0.00 in Rain Light Rain
7:56 PM 46.0 °F 38.8 °F 41.0 °F 83% 29.63 in 10.0 mi SSE 18.4 mph 24.2 mph 0.00 in   Scattered Clouds
8:56 PM 46.9 °F - 41.0 °F 80% 29.64 in 10.0 mi SSE 16.1 mph - N/A   Mostly Cloudy
9:56 PM 46.0 °F 38.5 °F 41.0 °F 83% 29.63 in 10.0 mi SSE 19.6 mph 27.6 mph N/A   Mostly Cloudy
10:56 PM 46.0 °F 43.9 °F 41.0 °F 83% 29.63 in 10.0 mi SE 4.6 mph - N/A   Overcast
11:14 PM 46.4 °F 43.5 °F 42.8 °F 87% 29.61 in 10.0 mi SSE 5.8 mph - 0.00 in Rain Light Rain
11:36 PM 46.4 °F 42.4 °F 41.0 °F 81% 29.60 in 10.0 mi ESE 8.1 mph - 0.00 in   Overcast
11:56 PM 45.0 °F 43.5 °F 39.9 °F 82% 29.60 in 10.0 mi ESE 3.5 mph - 0.00 in   Overcast